Wind_Speed
18 12 16 20 21 21 20 21 19 17 19 13 11 20 14 10 13 10 20 23 24 22 21 29 30 30 30 30 27 26 22 28 24 19 15 14 14 15 14 14 10 9 11 8
13 19 19 19 20 20 21 21 20 17 20 15 14 15 14 19 12 5 20 23 26 25 22 24 27 31 30 30 31 27 25 29 27 21 19 16 16 15 14 17 15 10 9 10
20 14 23 21 19 19 19 20 18 17 16 18 16 14 13 12 8 10 23 23 24 27 26 22 25 30 30 32 32 29 29 28 27 20 21 17 14 11 17 20 14 11 10 9
20 21 19 20 22 19 19 16 19 19 18 14 18 10 11 13 15 21 21 24 24 24 24 22 24 29 32 34 33 33 29 27 30 24 22 18 14 14 16 19 16 17 13 11
16 20 20 21 17 21 18 18 15 16 18 19 23 13 11 24 16 18 20 22 26 24 26 26 25 31 33 35 36 35 33 29 28 32 22 22 20 18 14 15 22 22 17 13
15 18 15 19 20 16 16 18 17 18 15 16 21 19 16 19 20 17 25 28 28 26 25 26 34 33 31 33 36 35 36 34 31 36 28 25 26 19 15 17 23 20 19 18
16 18 18 13 15 19 17 13 12 14 14 18 19 19 14 14 26 21 17 27 26 27 24 23 25 28 33 36 39 39 40 36 36 34 35 25 30 29 19 16 21 20 19 22
14 12 22 18 17 15 18 19 14 17 15 18 20 20 17 23 25 28 29 19 21 27 25 23 26 31 37 38 40 39 41 39 38 34 37 32 29 29 26 15 19 15 19 20
9 14 15 13 21 17 21 19 21 23 22 15 17 17 23 20 21 29 19 16 13 17 15 26 23 31 34 36 41 41 41 40 39 39 35 36 30 29 25 21 21 21 20 10
10 14 16 16 7 12 16 18 17 15 21 24 18 20 14 19 17 18 19 21 22 19 15 16 22 30 33 37 36 38 39 42 40 40 37 35 38 35 29 31 22 23 21 20
9 9 16 18 13 12 13 15 18 17 15 18 16 16 16 12 21 19 21 21 15 14 19 18 24 29 36 36 35 38 38 39 40 39 39 36 35 36 38 29 34 28 28 17
10 8 12 18 18 21 14 20 19 14 18 15 16 18 22 11 7 20 18 24 25 29 21 13 26 35 36 38 38 39 38 38 41 40 38 38 35 36 36 37 31 30 27 27
8 7 12 16 15 17 20 18 20 20 19 21 16 14 24 18 11 9 16 12 12 24 24 28 30 29 30 37 37 38 39 41 37 38 38 36 37 37 37 37 34 33 35 28
3 12 17 15 16 15 12 14 19 21 16 17 20 23 22 16 6 14 10 7 9 13 31 27 31 5 24 35 37 37 38 38 38 39 38 38 40 39 38 36 39 34 32 33
7 15 17 21 24 19 20 19 18 19 24 21 20 23 22 7 23 12 21 19 8 11 4 3 9 20 32 33 36 38 35 38 37 37 40 41 40 39 37 37 37 38 38 34
13 15 16 20 20 18 22 23 20 20 22 22 28 25 20 16 15 22 16 21 17 9 11 13 11 5 9 19 32 36 37 36 37 36 38 35 37 37 38 38 36 37 37 35
11 10 9 18 20 16 19 20 21 19 21 20 21 19 17 15 10 15 15 17 22 15 15 16 15 12 6 6 11 28 33 33 36 34 34 37 37 39 40 37 38 36 37 36
14 16 6 10 12 16 17 19 21 23 25 22 22 23 22 18 11 10 14 8 13 22 18 15 14 18 14 22 25 30 30 32 30 34 31 36 36 39 38 38 37 38 35 37
17 15 7 8 9 16 22 14 6 15 13 15 14 19 25 22 19 6 17 13 7 17 16 17 22 23 26 25 20 17 28 36 32 28 35 35 39 35 38 38 39 37 36 35
17 17 9 9 11 10 16 6 15 14 11 17 21 20 19 25 15 7 12 15 16 17 20 20 23 24 26 26 25 19 19 26 34 37 32 32 36 34 37 38 37 37 36 37
6 11 12 12 11 13 1 2 7 9 4 16 15 18 19 14 6 4 7 8 11 19 22 22 20 21 21 29 33 25 22 20 30 32 34 32 32 38 35 35 34 34 35 33
7 5 9 6 8 14 13 7 3 7 14 18 18 14 17 14 13 12 12 11 12 12 18 19 18 20 22 25 28 31 24 27 20 31 33 31 36 31 33 34 33 34 33 33
3 5 4 6 3 10 9 8 12 13 13 16 20 18 16 14 10 10 8 9 9 11 14 15 17 18 21 25 24 26 25 23 23 19 32 33 30 34 32 33 33 31 33 30
9 9 4 9 5 18 14 12 9 11 14 15 19 17 16 11 10 9 8 11 11 13 13 15 16 16 19 25 25 25 27 28 20 23 28 31 29 30 32 29 33 32 31 31
2 8 6 6 8 17 13 12 13 13 12 15 14 12 8 9 10 8 6 7 12 12 13 13 15 16 19 24 26 28 27 26 20 24 24 26 26 30 29 33 30 33 32 33
2 3 3 3 8 7 7 11 14 15 12 14 10 11 10 10 10 9 8 10 10 11 13 12 14 17 19 22 26 28 29 27 19 7 20 22 23 25 28 29 24 32 30 32
Wind_Direction
209 210 217 226 230 242 266 280 236 238 231 227 223 132 137 270 258 286 161 164 175 191 195 178 171 170 161 158 163 172 182 167 172 173 189 205 186 188 193 177 188 164 155 161
200 229 229 229 237 232 252 264 275 272 251 182 149 161 167 190 238 263 175 179 176 178 199 174 178 173 172 165 167 175 186 167 173 179 193 208 191 186 193 185 170 159 172 174
228 225 218 237 235 243 235 249 262 274 280 199 213 156 206 220 357 297 249 182 187 175 192 175 186 178 179 168 171 178 183 171 174 186 194 211 220 201 182 165 167 169 184 201
233 242 249 215 239 238 246 244 254 277 279 270 235 221 171 211 172 249 288 176 194 182 183 177 185 184 182 173 174 178 182 179 182 190 191 204 213 209 194 183 184 175 189 194
241 237 237 248 228 237 254 257 258 241 266 276 267 256 172 171 186 182 283 215 187 193 183 180 185 189 184 174 175 177 182 186 187 193 194 196 211 220 200 184 202 177 183 195
281 285 237 246 251 239 250 252 265 270 256 247 251 261 250 166 179 176 217 245 181 186 190 180 182 185 187 178 177 178 182 187 189 196 196 196 206 215 206 208 165 172 187 194
237 252 265 272 247 242 221 239 237 242 240 247 236 243 248 220 167 166 199 245 185 175 187 183 176 180 189 183 180 181 182 187 190 192 203 197 202 217 220 216 180 187 187 189
288 229 218 226 230 244 223 225 231 230 236 243 236 249 237 254 188 183 189 197 301 176 179 186 182 186 187 189 183 183 183 186 189 192 199 203 201 214 222 222 209 200 206 206
316 258 296 208 222 223 250 223 237 260 265 253 259 234 229 245 250 195 165 151 196 267 193 179 184 189 188 190 188 186 184 186 189 194 196 202 200 204 212 212 213 216 227 249
317 313 295 297 238 258 239 262 235 233 252 262 265 257 257 202 229 238 167 170 180 224 309 290 180 188 192 193 190 189 187 188 191 193 196 198 202 203 203 213 213 214 218 234
315 285 289 302 266 241 241 257 264 275 239 251 259 259 268 246 201 218 158 159 152 161 225 258 273 195 190 191 192 191 191 188 191 194 198 199 202 204 206 209 215 212 217 218
318 316 285 270 272 281 248 270 266 247 246 265 253 257 262 316 266 200 215 168 183 168 156 178 249 244 180 188 191 191 192 194 193 195 196 200 201 202 206 209 210 207 209 222
352 284 281 260 264 274 269 242 255 267 261 257 263 239 263 288 309 233 205 221 172 157 174 191 224 233 180 183 186 190 192 197 194 195 198 200 203 203 206 208 210 208 211 209
315 266 269 281 290 333 302 268 251 270 259 257 252 263 278 255 322 4 332 260 251 180 185 199 205 144 176 182 184 188 192 193 196 194 199 202 203 205 204 205 207 209 206 210
249 267 263 270 282 297 296 279 283 283 258 259 252 245 259 291 1 345 12 341 275 231 277 307 197 143 233 183 183 184 190 192 193 197 197 203 205 205 205 206 205 208 211 212
276 268 266 276 272 275 271 278 261 267 279 271 264 265 282 320 72 303 359 359 340 19 13 18 5 327 136 173 177 182 187 189 192 197 199 201 203 203 208 207 207 205 209 210
257 274 291 265 273 270 274 255 262 260 264 270 272 268 274 295 31 350 345 9 348 360 6 3 352 352 93 157 209 188 192 187 190 197 197 198 199 203 206 208 207 208 206 210
261 266 201 269 281 273 265 267 273 266 255 263 269 277 285 289 294 311 315 17 2 339 349 347 336 332 352 145 232 212 191 194 194 196 197 197 199 199 203 206 209 209 209 209
253 245 236 260 241 257 275 284 350 342 297 251 335 315 287 268 272 23 13 37 32 314 340 336 334 335 333 325 324 329 187 191 199 198 201 198 200 197 198 204 208 208 209 212
254 253 190 225 235 256 251 56 317 323 264 21 360 346 350 360 245 95 30 5 359 337 332 328 336 329 323 322 311 299 292 197 195 205 207 205 198 200 200 204 206 209 210 213
303 246 251 241 251 250 123 53 334 252 339 346 346 339 347 2 38 357 1 15 4 337 328 329 332 328 328 334 339 283 276 273 205 203 207 206 203 202 202 202 204 207 211 214
300 258 227 221 243 242 33 317 311 357 315 330 325 317 321 331 350 352 356 9 354 333 327 334 335 333 332 342 337 329 253 257 263 201 203 207 204 200 203 200 204 207 209 212
346 7 314 309 289 52 52 0 341 344 321 317 319 306 304 312 319 343 337 353 333 329 336 342 337 344 347 348 342 332 343 281 250 258 196 203 200 204 205 202 203 206 209 212
341 22 289 335 321 344 335 317 342 338 325 315 311 298 303 313 329 334 338 341 341 349 336 351 348 355 356 350 341 334 333 329 272 235 194 196 196 199 205 210 204 207 208 210
321 322 311 271 330 335 27 359 347 329 327 328 323 311 321 317 308 321 335 335 329 335 335 350 353 357 1 351 343 340 342 342 323 207 187 191 197 197 202 208 208 209 213 212
304 311 324 326 309 312 309 336 343 336 333 319 312 316 311 302 297 307 308 307 309 329 341 340 355 0 358 351 343 343 348 351 345 255 186 193 200 200 203 204 211 211 213 220
Height
735 747 753 742 735 727 723 719 717 704 686 700 710 745 760 757 757 747 733 745 758 761 762 766 772 781 789 797 805 812 817 821 827 832 835 837 838 841 843 844 848 851 857 857
739 750 733 724 720 726 725 728 719 695 683 694 721 761 755 743 739 753 731 738 747 756 758 762 768 777 785 793 801 809 815 819 824 830 833 835 837 839 841 843 846 848 854 858
741 724 720 724 724 728 725 729 721 716 691 685 699 758 766 744 739 759 737 728 737 745 752 757 764 772 780 788 797 805 811 817 822 828 831 834 835 838 839 842 844 847 850 853
727 716 715 723 727 722 735 709 715 717 718 729 688 743 761 759 761 759 768 724 734 737 746 753 760 766 774 783 792 800 808 813 819 825 829 831 833 835 837 839 842 844 848 851
726 720 722 722 720 716 726 708 713 719 726 722 709 717 710 735 752 747 761 727 723 730 737 744 751 760 768 777 785 794 803 810 816 820 825 829 831 832 834 837 840 842 846 849
720 701 705 713 707 710 709 719 720 719 722 743 723 720 712 723 729 745 749 733 708 720 727 734 745 756 763 771 781 789 797 804 811 816 820 825 828 830 833 835 837 840 843 847
728 724 708 703 718 709 716 732 760 762 753 740 710 721 708 681 700 709 729 716 695 706 720 726 736 747 755 762 770 779 788 797 804 810 816 820 825 827 830 832 835 838 840 843
742 737 715 708 717 723 720 729 750 770 752 734 703 723 703 673 676 688 693 717 713 695 707 720 728 735 744 752 761 770 779 788 796 804 810 816 821 824 827 830 832 834 836 838
746 736 702 700 703 713 725 729 715 732 716 721 706 687 673 668 666 671 688 694 713 715 700 710 725 733 739 746 751 759 770 779 788 796 803 810 815 819 823 826 829 832 834 837
755 764 724 712 704 707 717 709 734 729 758 751 719 702 691 679 674 665 678 700 704 715 715 725 711 726 735 741 748 756 763 771 780 789 796 802 808 813 818 822 825 828 832 833
763 766 751 731 729 732 728 733 724 719 720 741 742 712 662 661 661 664 671 681 693 700 721 729 731 713 723 735 742 748 756 765 773 780 788 795 801 808 813 817 820 823 827 830
761 769 768 750 727 716 719 727 723 737 742 720 716 709 650 646 647 648 655 675 673 677 699 716 707 710 705 721 730 737 746 755 763 772 780 787 794 801 805 810 814 819 823 826
773 775 776 764 749 733 732 724 721 719 715 725 728 712 654 659 655 646 653 654 661 681 697 703 706 697 691 705 716 725 735 744 755 765 773 780 786 792 797 803 808 813 817 821
783 785 786 779 755 752 750 733 730 729 730 725 714 710 681 671 670 667 661 656 657 660 681 681 683 687 680 698 705 714 724 734 746 755 764 770 776 782 788 795 801 806 810 814
782 789 781 773 763 759 756 749 740 739 727 730 712 708 686 685 686 683 685 671 661 662 664 668 666 680 702 689 697 703 714 723 734 744 752 757 766 775 782 788 792 798 804 807
783 786 779 778 766 766 767 755 743 742 732 722 714 705 681 688 704 696 696 693 677 671 671 670 669 670 672 681 688 696 704 713 724 734 741 753 762 768 774 779 785 791 796 800
786 788 796 793 772 767 771 754 745 740 733 730 728 705 694 704 709 705 700 701 700 682 678 678 679 680 681 686 688 698 704 709 716 724 734 743 751 759 765 772 778 783 787 793
782 783 795 797 788 798 759 744 738 736 732 726 721 714 708 707 704 706 702 705 714 703 696 691 688 685 692 711 697 696 704 708 710 717 726 734 741 748 757 765 770 776 781 784
772 776 796 801 789 778 762 745 746 752 736 720 730 722 710 704 703 716 717 719 722 721 709 703 697 693 689 693 680 696 693 699 705 710 717 724 732 740 748 754 761 767 773 778
768 764 787 796 788 787 757 763 753 750 755 745 746 738 731 715 711 739 733 724 720 722 720 716 712 704 699 695 693 694 696 693 694 701 708 719 727 734 740 746 753 760 765 767
784 778 784 787 787 770 759 765 763 771 765 759 760 758 750 748 749 741 735 738 735 734 730 725 721 714 708 704 699 691 691 690 690 696 705 712 719 725 732 740 747 753 758 762
786 785 784 788 796 780 767 762 775 782 776 770 764 763 759 756 747 739 735 732 734 740 738 732 729 723 716 712 707 698 688 687 691 692 698 705 712 719 726 732 739 745 750 755
795 805 798 782 771 773 780 787 783 781 782 774 771 761 759 754 753 752 750 747 748 744 740 739 736 729 723 718 713 704 693 688 688 691 691 698 705 712 718 724 731 737 742 746
811 815 804 797 769 779 784 782 789 788 785 779 771 761 759 755 756 751 748 745 744 742 741 738 734 730 723 720 716 709 698 688 683 684 686 692 698 705 711 718 723 728 732 736
827 825 818 807 792 794 792 796 795 790 785 781 774 769 761 757 756 756 754 751 750 746 744 739 735 730 724 723 718 711 701 691 681 677 682 688 694 699 705 710 715 718 722 725
827 825 818 811 815 810 804 798 795 790 783 780 775 770 764 761 755 754 752 754 753 747 745 740 736 731 727 725 720 713 703 695 687 680 680 685 689 694 699 704 707 712 716 720